Wind_Speed
23 21 21 26 29 33 34 30 30 32 29 37 38 44 46 50 46 45 48 47 48 44
20 20 19 22 24 31 32 29 30 33 34 30 44 48 49 50 49 42 45 43 42 44
18 18 13 18 19 19 23 26 28 30 35 34 43 46 43 44 47 45 43 48 44 41
15 15 10 11 11 18 21 21 27 29 31 40 30 41 41 44 47 42 43 45 39 38
15 15 16 10 11 12 15 3 16 17 29 39 35 40 41 41 42 40 40 36 34 34
11 14 17 16 13 8 10 14 6 12 11 17 39 40 33 34 33 31 30 29 29 29
12 7 13 15 17 15 7 11 14 14 19 16 16 26 29 29 30 28 28 25 23 23
3 7 3 10 13 15 8 11 14 14 13 24 13 21 21 21 24 24 21 20 19 20
8 10 9 6 8 9 13 11 18 17 18 16 18 20 17 15 17 19 17 17 17 16
13 9 7 5 1 7 13 13 16 16 17 17 15 18 18 18 18 18 19 18 20 18
12 13 11 10 5 11 10 8 9 9 13 17 15 18 21 21 20 20 21 19 17 17
12 14 14 12 11 11 17 11 10 10 9 21 14 20 17 18 18 16 18 16 17 20
12 12 14 15 12 13 16 17 13 14 14 15 19 18 19 19 20 22 21 21 17 14
13 13 13 14 15 17 16 16 17 17 16 14 13 12 12 14 15 17 18 18 13 13
Wind_Direction
298 285 267 262 258 258 251 246 237 238 236 235 226 225 220 209 204 204 210 218 216 213
303 288 271 278 271 259 256 244 247 237 239 224 218 225 210 209 201 203 217 214 220 219
309 288 289 295 280 266 267 257 252 230 229 227 215 213 197 200 208 197 208 215 210 213
313 294 285 290 288 272 252 249 242 232 227 226 221 197 202 204 196 196 207 212 210 208
304 297 276 273 277 269 229 211 192 174 212 223 225 206 208 198 205 195 203 200 200 209
287 308 283 265 266 273 227 217 179 221 212 179 196 196 196 198 182 182 181 184 193 200
310 325 313 282 257 235 233 196 192 182 203 212 125 163 170 171 168 169 176 179 188 195
317 306 320 310 268 218 214 194 166 181 149 171 133 117 132 151 164 168 168 170 180 189
54 60 20 346 278 237 200 211 202 174 160 159 149 141 141 139 143 142 154 165 175 182
43 41 66 61 134 217 187 199 228 215 182 162 158 170 160 155 152 167 175 176 177 182
59 63 99 79 165 173 184 187 176 217 203 190 198 168 166 167 174 183 180 185 190 203
63 72 81 106 125 166 156 160 153 161 162 187 213 189 194 197 196 199 205 211 216 210
68 78 83 82 93 134 158 166 168 177 183 199 208 205 209 209 204 209 206 208 204 202
72 78 87 93 98 105 123 146 142 139 131 136 137 148 178 193 198 199 194 180 184 179
Height
1420 1417 1416 1416 1416 1417 1418 1418 1421 1424 1426 1428 1431 1436 1442 1447 1458 1465 1473 1481 1488 1495
1414 1412 1410 1409 1408 1408 1409 1412 1414 1416 1419 1422 1424 1428 1434 1442 1449 1455 1467 1472 1484 1491
1409 1407 1405 1404 1403 1402 1402 1404 1406 1409 1413 1417 1418 1423 1425 1436 1441 1451 1456 1470 1478 1486
1405 1403 1401 1401 1400 1399 1400 1400 1399 1402 1407 1412 1416 1415 1425 1432 1439 1441 1455 1466 1471 1480
1402 1400 1398 1397 1396 1398 1398 1398 1397 1400 1404 1406 1412 1415 1421 1427 1433 1438 1453 1461 1465 1476
1399 1397 1395 1395 1395 1396 1397 1399 1399 1402 1406 1407 1405 1410 1417 1423 1429 1438 1446 1455 1464 1472
1397 1395 1394 1393 1392 1394 1397 1398 1402 1404 1405 1410 1409 1412 1418 1425 1431 1437 1446 1454 1461 1468
1395 1394 1392 1391 1391 1393 1397 1401 1404 1406 1408 1411 1413 1414 1420 1427 1430 1440 1445 1452 1461 1471
1395 1395 1393 1391 1391 1394 1399 1403 1407 1410 1413 1416 1419 1422 1427 1430 1436 1440 1450 1456 1464 1469
1399 1397 1395 1395 1396 1397 1401 1405 1407 1410 1414 1416 1422 1425 1427 1432 1436 1444 1452 1459 1464 1467
1403 1400 1398 1399 1398 1400 1403 1406 1409 1411 1415 1419 1422 1428 1432 1436 1442 1448 1452 1457 1460 1464
1409 1406 1403 1402 1402 1404 1405 1409 1412 1415 1418 1423 1426 1430 1434 1437 1441 1446 1451 1454 1457 1461
1413 1410 1407 1406 1407 1407 1408 1411 1414 1417 1420 1424 1425 1429 1432 1436 1439 1442 1447 1451 1454 1458
1415 1414 1413 1412 1412 1412 1412 1414 1416 1419 1422 1424 1426 1429 1432 1435 1438 1442 1445 1450 1453 1456